TimeEST,TemperatureF,Dew PointF,Humidity,Sea Level PressureIn,VisibilityMPH,Wind Direction,Wind SpeedMPH,Gust SpeedMPH,PrecipitationIn,Events,Conditions,WindDirDegrees,DateUTC
12:35 AM,44.6,43.7,97,30.17,3.0,Calm,Calm,-,N/A,,Overcast,0,2013-01-07 05:35:00
12:55 AM,44.4,43.7,97,30.17,1.8,Calm,Calm,-,N/A,,Overcast,0,2013-01-07 05:55:00
1:15 AM,44.2,43.7,98,30.19,1.8,NNW,4.6,-,N/A,,Overcast,340,2013-01-07 06:15:00
1:35 AM,44.1,43.5,98,30.20,5.0,North,6.9,-,N/A,,Overcast,360,2013-01-07 06:35:00
1:55 AM,43.0,42.3,97,30.20,7.0,North,3.5,-,N/A,,Mostly Cloudy,10,2013-01-07 06:55:00
2:15 AM,42.3,41.4,97,30.19,5.0,Calm,Calm,-,N/A,,Scattered Clouds,0,2013-01-07 07:15:00
2:35 AM,41.7,41.0,97,30.20,4.0,Calm,Calm,-,N/A,,Clear,0,2013-01-07 07:35:00
2:55 AM,40.6,40.1,98,30.21,2.5,Calm,Calm,-,N/A,,Mist,0,2013-01-07 07:55:00
3:15 AM,40.3,39.7,98,30.21,3.0,Calm,Calm,-,N/A,,Mist,0,2013-01-07 08:15:00
3:35 AM,39.6,39.2,99,30.21,4.0,Calm,Calm,-,N/A,,Clear,0,2013-01-07 08:35:00
3:55 AM,39.4,39.0,99,30.22,5.0,Calm,Calm,-,N/A,,Clear,0,2013-01-07 08:55:00
4:15 AM,38.8,38.3,98,30.22,3.0,Calm,Calm,-,N/A,,Clear,0,2013-01-07 09:15:00
4:35 AM,38.1,37.4,97,30.22,1.8,Calm,Calm,-,N/A,,Mist,0,2013-01-07 09:35:00
4:55 AM,37.2,36.9,99,30.23,2.0,Calm,Calm,-,N/A,,Clear,0,2013-01-07 09:55:00
5:15 AM,36.5,36.1,99,30.24,1.0,Calm,Calm,-,N/A,,Mist,0,2013-01-07 10:15:00
5:35 AM,35.6,35.1,98,30.24,2.0,Calm,Calm,-,N/A,,Clear,0,2013-01-07 10:35:00
5:55 AM,36.0,35.8,99,30.26,2.0,Calm,Calm,-,N/A,,Clear,0,2013-01-07 10:55:00
6:15 AM,35.6,35.6,100,30.27,2.0,Calm,Calm,-,N/A,,Clear,0,2013-01-07 11:15:00
6:35 AM,34.9,34.5,99,30.28,2.0,Calm,Calm,-,N/A,,Clear,0,2013-01-07 11:35:00
6:55 AM,34.3,34.2,99,30.28,0.8,Calm,Calm,-,N/A,,Mist,0,2013-01-07 11:55:00
7:35 AM,34.0,33.8,99,30.30,1.5,Calm,Calm,-,N/A,,Mist,0,2013-01-07 12:35:00
7:55 AM,34.3,34.2,99,30.32,2.5,Calm,Calm,-,N/A,,Clear,0,2013-01-07 12:55:00
8:15 AM,35.6,35.2,99,30.33,10.0,Calm,Calm,-,N/A,,Clear,0,2013-01-07 13:15:00
8:35 AM,37.0,36.7,99,30.34,10.0,North,3.5,-,N/A,,Clear,360,2013-01-07 13:35:00
8:55 AM,39.7,35.4,85,30.34,10.0,North,3.5,-,N/A,,Clear,350,2013-01-07 13:55:00
9:15 AM,41.4,34.0,75,30.35,10.0,NNE,6.9,-,N/A,,Clear,20,2013-01-07 14:15:00
9:35 AM,43.0,33.4,69,30.37,10.0,North,6.9,-,N/A,,Clear,10,2013-01-07 14:35:00
9:55 AM,44.8,33.4,64,30.38,10.0,NNE,5.8,-,N/A,,Clear,20,2013-01-07 14:55:00
10:15 AM,45.7,32.9,61,30.39,10.0,NNE,6.9,-,N/A,,Clear,30,2013-01-07 15:15:00
10:35 AM,47.1,32.2,56,30.39,10.0,NNE,6.9,-,N/A,,Clear,30,2013-01-07 15:35:00
10:55 AM,49.3,32.4,52,30.39,10.0,NE,8.1,-,N/A,,Clear,40,2013-01-07 15:55:00
11:15 AM,50.5,31.6,48,30.38,10.0,NE,8.1,-,N/A,,Clear,40,2013-01-07 16:15:00
11:35 AM,50.9,30.9,46,30.37,10.0,NNE,8.1,-,N/A,,Clear,20,2013-01-07 16:35:00
11:55 AM,51.8,30.9,45,30.37,10.0,ENE,16.1,20.7,N/A,,Clear,60,2013-01-07 16:55:00
12:15 PM,51.8,30.0,43,30.36,10.0,NE,13.8,-,N/A,,Clear,50,2013-01-07 17:15:00
12:35 PM,52.2,30.7,44,30.36,10.0,ENE,11.5,16.1,N/A,,Clear,60,2013-01-07 17:35:00
12:55 PM,52.7,29.8,42,30.36,10.0,NNE,4.6,-,N/A,,Clear,30,2013-01-07 17:55:00
1:15 PM,53.1,28.9,40,30.35,10.0,NNE,5.8,-,N/A,,Clear,30,2013-01-07 18:15:00
1:35 PM,53.6,29.1,39,30.35,10.0,NNE,9.2,-,N/A,,Clear,20,2013-01-07 18:35:00
2:15 PM,54.1,29.7,39,30.36,10.0,NE,9.2,-,N/A,,Clear,50,2013-01-07 19:15:00
2:35 PM,54.0,30.2,40,30.36,10.0,NE,8.1,-,N/A,,Clear,50,2013-01-07 19:35:00
2:55 PM,54.1,30.4,40,30.36,10.0,North,3.5,-,N/A,,Clear,10,2013-01-07 19:55:00
3:15 PM,54.0,30.0,40,30.37,10.0,NNE,6.9,-,N/A,,Clear,30,2013-01-07 20:15:00
3:55 PM,53.4,30.9,42,30.37,10.0,ENE,4.6,-,N/A,,Clear,60,2013-01-07 20:55:00
4:15 PM,53.1,31.5,44,30.37,10.0,NE,8.1,-,N/A,,Clear,50,2013-01-07 21:15:00
4:35 PM,52.2,31.8,46,30.38,10.0,NE,5.8,-,N/A,,Clear,50,2013-01-07 21:35:00
4:55 PM,50.9,32.5,49,30.39,10.0,ENE,3.5,-,N/A,,Clear,60,2013-01-07 21:55:00
5:15 PM,50.0,32.4,51,30.39,10.0,Calm,Calm,-,N/A,,Clear,0,2013-01-07 22:15:00
5:35 PM,47.5,33.6,59,30.39,10.0,Calm,Calm,-,N/A,,Clear,0,2013-01-07 22:35:00
6:15 PM,45.7,35.2,67,30.40,10.0,Calm,Calm,-,N/A,,Clear,0,2013-01-07 23:15:00
6:35 PM,44.1,36.1,74,30.41,10.0,Calm,Calm,-,N/A,,Clear,0,2013-01-07 23:35:00
6:55 PM,42.1,36.0,79,30.41,10.0,Calm,Calm,-,N/A,,Clear,0,2013-01-07 23:55:00
7:15 PM,39.6,34.9,83,30.42,10.0,Calm,Calm,-,N/A,,Clear,0,2013-01-08 00:15:00
7:35 PM,41.2,34.9,78,30.42,10.0,Calm,Calm,-,N/A,,Clear,0,2013-01-08 00:35:00
7:55 PM,38.8,34.3,84,30.41,10.0,Calm,Calm,-,N/A,,Clear,0,2013-01-08 00:55:00
8:15 PM,37.8,35.2,91,30.41,10.0,Calm,Calm,-,N/A,,Clear,0,2013-01-08 01:15:00
8:35 PM,38.5,35.8,90,30.42,10.0,Calm,Calm,-,N/A,,Clear,0,2013-01-08 01:35:00
8:55 PM,38.3,35.2,89,30.42,10.0,Calm,Calm,-,N/A,,Clear,0,2013-01-08 01:55:00
9:15 PM,36.9,34.3,91,30.41,10.0,Calm,Calm,-,N/A,,Clear,0,2013-01-08 02:15:00
9:35 PM,37.6,35.6,93,30.41,10.0,Calm,Calm,-,N/A,,Clear,0,2013-01-08 02:35:00
9:55 PM,39.4,36.0,88,30.41,10.0,Calm,Calm,-,N/A,,Clear,0,2013-01-08 02:55:00
10:35 PM,39.7,36.1,87,30.41,10.0,Calm,Calm,-,N/A,,Clear,0,2013-01-08 03:35:00
10:55 PM,38.8,36.0,89,30.40,10.0,NE,3.5,-,N/A,,Clear,40,2013-01-08 03:55:00
11:15 PM,39.7,36.1,87,30.40,10.0,NE,3.5,-,N/A,,Clear,40,2013-01-08 04:15:00
11:35 PM,40.5,36.9,87,30.40,10.0,NE,5.8,-,N/A,,Clear,50,2013-01-08 04:35:00
11:55 PM,40.3,37.0,88,30.40,10.0,NNE,4.6,-,N/A,,Mostly Cloudy,30,2013-01-08 04:55:00